Trenton, NJ

3:20 AM EST on December 06, 2019 (GMT -0500)
Trenton Mercer

Weather History for KTTN - October, 2019

Change the Weather History Date:

Friday, October 25, 2019

  Actual Average Record
Temperature  
Mean Temperature 53 °F 52 °F  
Max Temperature 66 °F 62 °F 77 °F (1963)
Min Temperature 39 °F 41 °F 30 °F (1891)
Degree Days  
Heating Degree Days 12 13  
Month to date heating degree days 202 246  
Since 1 July heating degree days 220 311  
Cooling Degree Days 0 0  
Month to date cooling degree days 26 7  
Year to date cooling degree days 1163 962  
Growing Degree Days 3 (Base 50)    
Moisture  
Dew Point 47 °F    
Average Humidity 79    
Maximum Humidity 96    
Minimum Humidity 61    
Precipitation  
Precipitation 0.00 in 0.14 in 2.67 in (1980)
Month to date precipitation 3.20 3.44  
Year to date precipitation 41.86 38.69  
Sea Level Pressure  
Sea Level Pressure 30.23 in    
Wind  
Wind Speed 1 mph ()    
Max Wind Speed 12 mph    
Max Gust Speed 15 mph    
Visibility 10.0 miles    
Events      
T = Trace of Precipitation, MM = Missing Value Source: Averaged Metar Reports

Daily Weather History Graph

Daily Weather History Graph

Search for Another Location

Airport or City:

Astronomy

Oct. 25, 2019 Rise Set
Actual Time 7:20 AM EDT 6:05 PM EDT
Civil Twilight 6:52 AM EDT 6:33 PM EDT
Nautical Twilight 6:20 AM EDT 7:05 PM EDT
Astronomical Twilight 5:49 AM EDT 7:36 PM EDT
Moon 3:59 AM EDT (10/25) 5:06 PM EDT (10/25)
Length of Visible Light 11h 40m
Length of Day
10h 44m
Waning Crescent, 9% of the Moon is Illuminated
Oct 25
Waning Crescent
Oct 27
New
Nov 4
First Quarter
Nov 12
Full
Nov 19
Last Quarter

Hourly Weather History & Observations

Time (EDT) Temp. Dew Point Humidity Pressure Visibility Wind Dir Wind Speed Gust Speed Precip Events Conditions
12:53 AM 46.9 °F 39.9 °F 77% 30.29 in 10.0 mi Calm Calm - N/A   Clear
1:53 AM 45.0 °F 39.9 °F 82% 30.28 in 10.0 mi Calm Calm - N/A   Clear
2:53 AM 45.0 °F 41.0 °F 86% 30.28 in 10.0 mi Calm Calm - N/A   Clear
3:53 AM 43.0 °F 39.9 °F 89% 30.28 in 10.0 mi Calm Calm - N/A   Clear
4:53 AM 39.0 °F 37.9 °F 96% 30.29 in 10.0 mi Calm Calm - N/A   Clear
5:53 AM 41.0 °F 39.0 °F 93% 30.29 in 10.0 mi Calm Calm - N/A   Clear
6:53 AM 42.1 °F 39.9 °F 92% 30.29 in 10.0 mi Calm Calm - N/A   Clear
7:53 AM 42.1 °F 39.9 °F 92% 30.30 in 10.0 mi Calm Calm - N/A   Clear
8:53 AM 46.9 °F 45.0 °F 93% 30.30 in 10.0 mi Calm Calm - N/A   Clear
10:53 AM 55.9 °F 50.0 °F 80% 30.29 in 10.0 mi Calm Calm - N/A   Clear
11:53 AM 60.1 °F 53.1 °F 78% 30.27 in 10.0 mi Calm Calm - N/A   Clear
12:53 PM 63.0 °F 53.1 °F 70% 30.24 in 10.0 mi Variable 4.6 mph - N/A   Clear
1:53 PM 64.9 °F 52.0 °F 63% 30.21 in 10.0 mi South 4.6 mph - N/A   Partly Cloudy
2:53 PM 64.9 °F 51.1 °F 61% 30.18 in 10.0 mi SW 6.9 mph - N/A   Clear
3:53 PM 64.9 °F 51.1 °F 61% 30.17 in 10.0 mi South 9.2 mph - N/A   Clear
4:53 PM 64.9 °F 51.1 °F 61% 30.16 in 10.0 mi SSW 9.2 mph - N/A   Clear
5:53 PM 62.1 °F 50.0 °F 65% 30.16 in 10.0 mi SSW 3.5 mph - N/A   Clear
6:53 PM 60.1 °F 50.0 °F 69% 30.16 in 10.0 mi Calm Calm - N/A   Clear
7:53 PM 60.1 °F 50.0 °F 69% 30.16 in 10.0 mi WSW 5.8 mph - N/A   Clear
8:53 PM 57.9 °F 52.0 °F 81% 30.16 in 10.0 mi SW 3.5 mph - N/A   Clear
9:53 PM 57.9 °F 52.0 °F 81% 30.17 in 10.0 mi Calm Calm - N/A   Clear
10:53 PM 55.9 °F 52.0 °F 87% 30.17 in 10.0 mi Calm Calm - N/A   Clear
11:53 PM 57.0 °F 52.0 °F 83% 30.16 in 10.0 mi Calm Calm - N/A   Overcast